FW7342 Weather Reports


time (UTC)temp
F
wind
direction
speed
knots
gust
knots
rain 1hr
in
rain 24hr
in
rain mn
in
humidity
%
barometer
mb
20260509185016 59 0 4.3 17.4 0.00 0.00 0.00 75 1004.5
20260509184015 60 0 4.3 15.6 0.00 0.00 0.00 74 1004.6
20260509183016 60 0 4.3 18.2 0.00 0.00 0.00 74 1004.8
20260509182016 60 0 3.5 9.6 0.00 0.00 0.00 73 1004.8
20260509181016 60 0 4.3 11.3 0.00 0.00 0.00 72 1004.9
20260509180016 61 0 7.0 18.2 0.00 0.00 0.00 70 1004.9
20260509175036 61 0 2.6 5.2 0.00 0.00 0.00 71 1005.2
20260509174015 61 0 4.3 14.8 0.00 0.00 0.00 71 1005.3
20260509173015 61 0 3.5 8.7 0.00 0.00 0.00 71 1005.2
20260509172016 61 0 4.3 16.5 0.00 0.00 0.00 71 1005.4
20260509171016 61 0 3.5 10.4 0.00 0.00 0.00 70 1005.5
20260509170035 61 0 3.5 7.8 0.00 0.00 0.00 70 1005.3
20260509165015 61 0 2.6 7.8 0.00 0.00 0.00 69 1005.8
20260509164035 61 0 4.3 16.5 0.00 0.00 0.00 67 1005.7
20260509163017 62 0 3.5 10.4 0.00 0.00 0.00 66 1005.6
20260509162017 62 0 3.5 8.7 0.00 0.00 0.00 62 1005.8
20260509161017 61 0 2.6 5.2 0.00 0.00 0.00 61 1006.0
20260509160017 61 0 5.2 10.4 0.00 0.00 0.00 61 1006.0
20260509155017 62 0 4.3 10.4 0.00 0.00 0.00 62 1006.1
20260509154017 62 0 3.5 25.2 0.00 0.00 0.00 61 1006.2
20260509153017 62 0 6.1 20.0 0.00 0.00 0.00 61 1006.0
20260509152037 62 0 3.5 10.4 0.00 0.00 0.00 63 1006.0
20260509151017 62 0 6.1 17.4 0.00 0.00 0.00 60 1006.2
20260509150017 63 0 3.5 8.7 0.00 0.00 0.00 59 1006.4
20260509145017 63 0 2.6 8.7 0.00 0.00 0.00 59 1006.2
20260509144037 63 0 4.3 14.8 0.00 0.00 0.00 58 1006.5
20260509143017 63 0 3.5 10.4 0.00 0.00 0.00 55 1006.0
20260509142017 64 0 3.5 7.8 0.00 0.00 0.00 54 1005.9
20260509141037 64 0 4.3 13.0 0.00 0.00 0.00 52 1005.7
20260509140037 65 0 2.6 7.0 0.00 0.00 0.00 52 1006.2
20260509135017 65 0 2.6 5.2 0.00 0.00 0.00 52 1006.2
20260509134017 66 0 4.3 11.3 0.00 0.00 0.00 51 1006.2
20260509133037 67 0 3.5 9.6 0.00 0.00 0.00 52 1006.2
20260509132017 67 0 2.6 7.0 0.00 0.00 0.00 50 1006.5
20260509131017 67 0 2.6 7.0 0.00 0.00 0.00 53 1006.8
20260509130017 68 0 2.6 9.6 0.00 0.00 0.00 51 1006.9
20260509125017 67 0 2.6 9.6 0.00 0.00 0.00 53 1006.8
20260509124017 67 0 3.5 9.6 0.00 0.00 0.00 49 1007.1
20260509123056 67 0 3.5 11.3 0.00 0.00 0.00 52 1007.1
20260509122016 66 0 2.6 7.0 0.00 0.00 0.00 48 1007.6
20260509121017 66 0 3.5 18.2 0.00 0.00 0.00 48 1007.8
20260509120016 65 0 0.9 4.3 0.00 0.00 0.00 50 1008.1
20260509115036 66 0 3.5 9.6 0.00 0.00 0.00 50 1008.1
20260509114016 67 0 2.6 11.3 0.00 0.00 0.00 50 1008.1
20260509113016 68 0 4.3 13.0 0.00 0.00 0.00 49 1008.4
20260509112016 68 0 4.3 9.6 0.00 0.00 0.00 49 1008.7
20260509111016 68 0 4.3 13.9 0.00 0.00 0.00 51 1008.6
20260509110016 67 0 1.7 7.8 0.00 0.00 0.00 51 1008.9
20260509105016 67 0 4.3 15.6 0.00 0.00 0.00 50 1009.0
20260509104016 68 0 4.3 13.9 0.00 0.00 0.00 50 1009.3
20260509103016 67 0 4.3 15.6 0.00 0.00 0.00 53 1009.1
20260509102016 68 0 3.5 12.2 0.00 0.00 0.00 53 1009.3
20260509101036 68 0 3.5 8.7 0.00 0.00 0.00 50 1009.7
20260509100016 68 0 4.3 13.0 0.00 0.00 0.00 52 1009.6
20260509095016 68 0 3.5 8.7 0.00 0.00 0.00 50 1009.8
20260509094016 67 0 2.6 7.8 0.00 0.00 0.00 55 1010.0
20260509093016 67 0 2.6 7.0 0.00 0.00 0.00 54 1010.1
20260509092016 67 0 3.5 7.8 0.00 0.00 0.00 56 1010.2
20260509091016 67 203 1.7 4.3 0.00 0.00 0.00 61 1010.4
20260509090016 66 0 1.7 10.4 0.00 0.00 0.00 60 1010.5
20260509085016 64 0 1.7 8.7 0.00 0.00 0.00 65 1010.5
20260509084016 63 0 1.7 4.3 0.00 0.00 0.00 71 1010.7
20260509083016 61 0 2.6 4.3 0.00 0.00 0.00 74 1010.7
20260509082036 60 0 4.3 8.7 0.00 0.00 0.00 76 1010.9
20260509081016 60 0 2.6 4.3 0.00 0.00 0.00 78 1011.0
20260509080016 59 0 1.7 5.2 0.00 0.00 0.00 79 1011.0
20260509075016 59 0 1.7 4.3 0.00 0.00 0.00 81 1011.3
20260509074016 57 0 3.5 7.8 0.00 0.00 0.00 83 1011.3
20260509073015 55 0 0.9 3.5 0.00 0.00 0.00 86 1011.3
20260509072016 55 0 0.9 3.5 0.00 0.00 0.00 88 1011.6
20260509071016 53 0 0.9 2.6 0.00 0.00 0.00 88 1011.7
20260509070016 52 0 1.7 3.5 0.00 0.00 0.00 88 1011.6
20260509065035 51 0 1.7 4.3 0.00 0.00 0.00 89 1011.7
20260509064016 49 0 1.7 3.5 0.00 0.00 0.00 88 1011.8
20260509063016 48 0.0 0.9 0.00 0.00 0.00 88 1011.6
20260509062035 48 0.0 0.9 0.00 0.00 0.00 87 1011.6
20260509061015 47 0.0 1.7 0.00 0.00 0.00 87 1011.7
20260509060015 47 0.0 0.0 0.00 0.00 0.00 87 1011.6
20260509055035 47 0.0 1.7 0.00 0.00 0.00 87 1011.5
20260509054035 47 0 0.9 1.7 0.00 0.00 0.00 87 1011.8
20260509053015 47 0.0 1.7 0.00 0.00 0.00 87 1011.9
20260509052015 47 0 0.9 2.6 0.00 0.00 0.00 86 1011.8
20260509051037 47 0 1.7 3.5 0.00 0.00 0.00 86 1012.0
20260509050017 47 0 0.9 1.7 0.00 0.00 0.00 86 1012.0
20260509045017 47 0 0.9 1.7 0.00 0.00 0.00 86 1012.0
20260509044017 47 0 0.9 1.7 0.00 0.00 0.00 86 1012.0
20260509043017 47 0 0.9 2.6 0.00 0.00 0.00 86 1012.1
20260509042017 47 0.0 1.7 0.00 0.00 0.00 86 1012.2
20260509041017 47 0 0.9 1.7 0.00 0.00 0.00 86 1012.1
20260509040017 47 0 0.9 3.5 0.00 0.00 0.00 86 1012.1
20260509035017 47 0.0 1.7 0.00 0.00 0.00 86 1012.2
20260509034017 47 0 0.9 2.6 0.00 0.00 0.00 86 1012.2
20260509033037 47 0 0.9 3.5 0.00 0.00 0.00 86 1012.3
20260509032017 47 0 0.9 1.7 0.00 0.00 0.00 86 1012.5
20260509031017 47 0 0.9 1.7 0.00 0.00 0.00 86 1012.4
20260509030017 47 0 0.9 2.6 0.00 0.00 0.00 86 1012.6
20260509025017 47 0 0.9 2.6 0.00 0.00 0.00 86 1012.6
20260509024037 47 0.0 1.7 0.00 0.00 0.00 86 1012.9
20260509023017 47 0.0 0.0 0.00 0.00 0.00 86 1013.0
20260509022017 48 0.0 0.9 0.00 0.00 0.00 85 1013.1
20260509021017 48 0 0.9 1.7 0.00 0.00 0.00 85 1013.2
20260509020017 48 0.0 1.7 0.00 0.00 0.00 86 1013.5
20260509015016 48 0 0.9 1.7 0.00 0.00 0.00 86 1013.6
20260509014016 48 0 0.9 1.7 0.00 0.00 0.00 86 1013.6
20260509013017 48 0 0.9 1.7 0.00 0.00 0.00 86 1013.9
20260509012016 48 0 0.9 1.7 0.00 0.00 0.00 86 1014.0
20260509011036 48 0 0.9 1.7 0.00 0.00 0.00 86 1014.1
20260509010017 48 0 0.9 1.7 0.00 0.00 0.00 86 1014.4
20260509005016 48 0 0.9 1.7 0.00 0.00 0.00 86 1014.4
20260509004016 48 0 0.9 1.7 0.00 0.00 0.00 85 1014.5
20260509003016 48 0.0 0.9 0.00 0.00 0.00 86 1014.6
20260509002057 48 0 0.9 1.7 0.00 0.00 0.00 85 1014.6
20260509001016 48 0 0.9 1.7 0.00 0.00 0.00 85 1014.8
20260509000036 48 0 0.9 1.7 0.00 0.00 0.00 85 1014.9
20260508235016 48 0 0.9 2.6 0.00 0.00 0.00 85 1014.9
20260508234016 48 0.0 1.7 0.00 0.00 0.00 85 1015.0
20260508233016 48 0.0 0.0 0.00 0.00 0.00 85 1015.0
20260508232016 49 0.0 0.0 0.00 0.00 0.00 85 1014.9
20260508231016 49 0.0 0.0 0.00 0.00 0.00 85 1015.0
20260508230036 49 0 0.9 1.7 0.00 0.00 0.00 85 1015.0
20260508225016 49 0.0 1.7 0.00 0.00 0.00 85 1015.1
20260508224016 49 0 0.9 1.7 0.00 0.00 0.00 85 1015.3
20260508223036 49 0.0 0.9 0.00 0.00 0.00 85 1015.5
20260508222016 49 0.0 0.9 0.00 0.00 0.00 85 1015.4
20260508221016 49 0 0.9 1.7 0.00 0.00 0.00 85 1015.5
20260508220016 49 0.0 1.7 0.00 0.00 0.00 85 1015.8
20260508215016 50 0.0 1.7 0.00 0.00 0.00 85 1015.8
20260508214016 50 0 0.9 2.6 0.00 0.00 0.00 85 1015.9
20260508213016 50 0.0 0.0 0.00 0.00 0.00 85 1016.1
20260508212015 50 0.0 0.0 0.00 0.00 0.00 85 1016.1
20260508211016 50 0.0 0.0 0.00 0.00 0.00 85 1016.2
20260508210016 51 0.0 0.9 0.00 0.00 0.00 85 1016.3
20260508205036 51 0.0 0.9 0.00 0.00 0.00 85 1016.4
20260508204036 51 0.0 0.9 0.00 0.00 0.00 85 1016.4
20260508203016 51 0.0 0.9 0.00 0.00 0.00 85 1016.5
20260508202015 52 0 0.9 2.6 0.00 0.00 0.00 85 1016.4
20260508201015 52 0.0 0.0 0.00 0.00 0.00 85 1016.6
20260508200015 52 0 0.9 1.7 0.00 0.00 0.00 85 1016.7
20260508195015 52 0 0.9 2.6 0.00 0.00 0.00 85 1016.6
20260508194015 52 0.0 0.0 0.00 0.00 0.00 85 1016.7
20260508193015 52 0 0.9 1.7 0.00 0.00 0.00 84 1016.9
20260508192017 53 0.0 1.7 0.00 0.00 0.00 85 1016.8
20260508191017 53 0.0 0.9 0.00 0.00 0.00 84 1016.7
20260508190017 53 0 0.9 1.7 0.00 0.00 0.00 84 1016.9